Overview Statistics Trail Chart Weather Telemetry Raw packets
 

This is the latest recevied weather packets stored in our database for station/object IR9AK-10. If no packets are shown the sender has not sent any weather packets the latest 10 day(s).

<< 11 12 13 14 15 16 17 >>
Time Temp. Humidity Pressure Rain* Wind** Luminosity Snow
1788450095 42.22° C 35% 1060 hPa - - - -
1788449496 41.67° C 35% 1060 hPa - - - -
1788448897 42.22° C 35% 1059.9 hPa - - - -
1788448297 43.33° C 33% 1059.9 hPa - - - -
1788447697 45.56° C 30% 1059.7 hPa - - - -
1788447116 46.11° C 29% 1059.7 hPa - - - -
1788446500 47.22° C 28% 1059.6 hPa - - - -
1788445902 47.22° C 28% 1059.8 hPa - - - -
1788445302 42.22° C 34% 1060 hPa - - - -
1788444703 42.22° C 33% 1060.3 hPa - - - -
1788444104 42.78° C 33% 1060.2 hPa - - - -
1788443505 42.22° C 34% 1060 hPa - - - -
1788442906 42.22° C 33% 1060.1 hPa - - - -
1788442308 42.22° C 33% 1060.1 hPa - - - -
1788441709 42.22° C 33% 1060.4 hPa - - - -
1788441111 42.22° C 34% 1060.2 hPa - - - -
1788440512 42.22° C 34% 1060.3 hPa - - - -
1788439913 42.22° C 34% 1060.4 hPa - - - -
1788439313 42.22° C 33% 1060.5 hPa - - - -
1788438715 42.22° C 44% 1060.4 hPa - - - -
1788438116 42.22° C 34% 1060.4 hPa - - - -
1788437516 42.22° C 33% 1060.5 hPa - - - -
1788436917 42.22° C 34% 1060.6 hPa - - - -
1788436319 41.67° C 35% 1060.7 hPa - - - -
1788435719 41.11° C 36% 1060.7 hPa - - - -

* Rain since midnight (hover to see other rain measurements)
** Current wind speed in m/s (hover to see current wind gust speed)